Notices

What's New in latest Release from April 7th, 2021:

- Updated Glossary, including Speed of Maximum Gust, and Total Hourly Precipitation

- Updated national and regional climate services offices contacts and prices information

- Addition of station inventory lists for 1981-2010, 1971-2000, and 1961-1990 Normals.

If you haven't already, please take our survey and provide feedback about our website: https://eccc.sondage-survey.ca/f/LanguageSelection.aspx?s=442ca660-fcf1-47c0-95a9-59707d6fd709

Hourly Data Report for May 31, 2020

MIRAMICHI RCS
NEW BRUNSWICK
Current Station Operator: ECCC - MSC

47°00'34.000" N
65°27'54.000" W
33.00 m
8100989
71744
ACQ

Download Data

Hourly Data (May 2020)
Hourly Data Report for May 31, 2020
TIME
LST
Temp Definition
°C
Dew Point Definition
°C
Rel Hum Definition
%
Precip. Amount Definition
mm

Wind Dir Definition
10's deg

Wind Spd Definition
km/h
Visibility Definition
km
Stn Press Definition
kPa
Hmdx Definition


Wind Chill Definition


Weather Definition


00:00 15.3 10.4 73 LegendMM 29 4   100.35     LegendNANA
01:00 15.2 9.2 68 LegendMM 36 5   100.33     LegendNANA
02:00 14.4 10.8 79 LegendMM 0 1   100.31     LegendNANA
03:00 12.3 10.3 87 LegendMM 0 1   100.26     LegendNANA
04:00 10.2 10.1 99 LegendMM 25 1   100.25     LegendNANA
05:00 9.3 LegendMM LegendMM LegendMM 27 4   100.29     LegendNANA
06:00 12.6 12.4 99 LegendMM 11 2   100.23     LegendNANA
07:00 14.4 13.8 96 LegendMM 22 1   100.26     LegendNANA
08:00 16.8 14.6 87 LegendMM 12 4   100.23     LegendNANA
09:00 16.4 14.6 89 LegendMM 28 9   100.23     LegendNANA
10:00 16.0 14.7 92 LegendMM 26 13   100.25     LegendNANA
11:00 17.8 15.6 87 LegendMM 26 11   100.22     LegendNANA
12:00 18.5 14.6 78 LegendMM 27 13   100.25     LegendNANA
13:00 19.2 15.1 77 LegendMM 27 16   100.24     LegendNANA
14:00 17.8 11.6 67 LegendMM 27 21   100.32     LegendNANA
15:00 17.6 10.2 62 LegendMM 30 20   100.39     LegendNANA
16:00 17.3 9.7 61 LegendMM 27 24   100.46     LegendNANA
17:00 15.1 6.7 57 LegendMM 30 20   100.54     LegendNANA
18:00 13.9 5.6 57 LegendMM 30 18   100.64     LegendNANA
19:00 12.8 4.9 59 LegendMM 31 13   100.72     LegendNANA
20:00 11.6 3.0 56 LegendMM 30 18   100.83     LegendNANA
21:00 9.4 2.8 63 LegendMM 30 15   100.90     LegendNANA
22:00 8.3 3.5 72 LegendMM 28 12   100.93     LegendNANA
23:00 7.2 1.0 65 LegendMM 28 11   100.92     LegendNANA

Notes on Data Quality.

Legend

  • E = Estimated
  • M = Missing
  • NA = Not Available*
  • [empty] = Indicates an unobserved value
Date modified: